Wetterdaten: Samstag, 04.06.2016
Datum Zeit Auen-Temp. Temp gefhlt Luftfeuchte Luftdruck Regen Wind Richtung Richtung Sonnenschein Taupunkt Windben
04.06.2016 00:00 10,7 C 7,1 C 87 % 1012,5 hPa 0,0 mm 0,0 km/h (0 Bft) O 90 0 min 8,6 C 0,0 km/h (0 Bft)
04.06.2016 00:05 10,7 C 7,1 C 87 % 1012,5 hPa 0,0 mm 0,0 km/h (0 Bft) O 90 0 min 8,6 C 0,0 km/h (0 Bft)
04.06.2016 00:10 10,6 C 7,0 C 87 % 1012,7 hPa 0,0 mm 0,0 km/h (0 Bft) O 90 0 min 8,5 C 0,0 km/h (0 Bft)
04.06.2016 00:15 10,6 C 7,1 C 87 % 1012,7 hPa 0,0 mm 0,0 km/h (0 Bft) O 90 0 min 8,5 C 0,0 km/h (0 Bft)
04.06.2016 00:20 10,6 C 6,9 C 87 % 1012,7 hPa 0,0 mm 0,0 km/h (0 Bft) O 90 0 min 8,5 C 0,0 km/h (0 Bft)
04.06.2016 00:25 10,5 C 6,9 C 87 % 1012,7 hPa 0,0 mm 0,0 km/h (0 Bft) O 90 0 min 8,4 C 0,0 km/h (0 Bft)
04.06.2016 00:30 10,7 C 7,1 C 87 % 1012,6 hPa 0,0 mm 0,0 km/h (0 Bft) O 90 0 min 8,6 C 0,0 km/h (0 Bft)
04.06.2016 00:35 10,7 C 7,1 C 87 % 1012,6 hPa 0,0 mm 0,0 km/h (0 Bft) O 90 0 min 8,6 C 0,0 km/h (0 Bft)
04.06.2016 00:40 10,7 C 7,1 C 88 % 1012,6 hPa 0,0 mm 0,0 km/h (0 Bft) O 90 0 min 8,8 C 0,0 km/h (0 Bft)
04.06.2016 00:45 10,7 C 7,1 C 88 % 1012,6 hPa 0,0 mm 0,0 km/h (0 Bft) O 90 0 min 8,8 C 0,0 km/h (0 Bft)
04.06.2016 00:50 10,6 C 7,1 C 88 % 1012,5 hPa 0,0 mm 0,0 km/h (0 Bft) O 90 0 min 8,7 C 0,0 km/h (0 Bft)
04.06.2016 00:55 10,7 C 7,1 C 88 % 1012,5 hPa 0,0 mm 0,0 km/h (0 Bft) O 90 0 min 8,8 C 0,0 km/h (0 Bft)
04.06.2016 01:00 10,6 C 7,1 C 88 % 1012,5 hPa 0,0 mm 0,0 km/h (0 Bft) O 90 0 min 8,7 C 0,0 km/h (0 Bft)
04.06.2016 01:05 10,7 C 7,1 C 88 % 1012,5 hPa 0,0 mm 0,0 km/h (0 Bft) O 90 0 min 8,8 C 0,0 km/h (0 Bft)
04.06.2016 01:10 10,7 C 7,2 C 88 % 1012,4 hPa 0,0 mm 0,0 km/h (0 Bft) O 90 0 min 8,8 C 0,0 km/h (0 Bft)
04.06.2016 01:15 10,7 C 7,1 C 88 % 1012,4 hPa 0,0 mm 0,0 km/h (0 Bft) O 90 0 min 8,8 C 0,0 km/h (0 Bft)
04.06.2016 01:20 10,6 C 7,1 C 88 % 1012,4 hPa 0,0 mm 0,0 km/h (0 Bft) O 90 0 min 8,7 C 0,0 km/h (0 Bft)
04.06.2016 01:23 10,6 C 7,1 C 88 % 1012,4 hPa 0,0 mm 0,0 km/h (0 Bft) O 90 0 min 8,7 C 0,0 km/h (0 Bft)
04.06.2016 01:26 10,6 C 7,1 C 88 % 1012,4 hPa 0,0 mm 0,0 km/h (0 Bft) O 90 0 min 8,7 C 0,0 km/h (0 Bft)
04.06.2016 01:30 10,7 C 7,1 C 88 % 1012,5 hPa 0,0 mm 0,0 km/h (0 Bft) O 90 0 min 8,8 C 0,0 km/h (0 Bft)
04.06.2016 01:35 10,6 C 7,1 C 88 % 1012,5 hPa 0,0 mm 0,0 km/h (0 Bft) O 90 0 min 8,7 C 0,0 km/h (0 Bft)
04.06.2016 01:40 10,6 C 7,1 C 88 % 1012,5 hPa 0,0 mm 0,0 km/h (0 Bft) O 90 0 min 8,7 C 0,0 km/h (0 Bft)
04.06.2016 01:45 10,6 C 7,1 C 88 % 1012,5 hPa 0,0 mm 0,0 km/h (0 Bft) O 90 0 min 8,7 C 0,0 km/h (0 Bft)
04.06.2016 01:50 10,6 C 7,1 C 88 % 1012,4 hPa 0,0 mm 0,0 km/h (0 Bft) O 90 0 min 8,7 C 0,0 km/h (0 Bft)
04.06.2016 01:55 10,7 C 7,1 C 88 % 1012,4 hPa 0,0 mm 0,0 km/h (0 Bft) O 90 0 min 8,8 C 0,0 km/h (0 Bft)
04.06.2016 02:00 10,6 C 7,1 C 88 % 1012,4 hPa 0,0 mm 0,0 km/h (0 Bft) O 90 0 min 8,7 C 0,0 km/h (0 Bft)
04.06.2016 02:05 10,6 C 7,1 C 88 % 1012,4 hPa 0,0 mm 0,0 km/h (0 Bft) O 90 0 min 8,7 C 0,0 km/h (0 Bft)
04.06.2016 02:10 10,6 C 7,1 C 88 % 1012,7 hPa 0,0 mm 0,0 km/h (0 Bft) O 90 0 min 8,7 C 0,0 km/h (0 Bft)
04.06.2016 02:15 10,6 C 7,1 C 88 % 1012,7 hPa 0,0 mm 0,0 km/h (0 Bft) O 90 0 min 8,7 C 0,0 km/h (0 Bft)
04.06.2016 02:20 10,6 C 7,1 C 88 % 1012,7 hPa 0,0 mm 0,0 km/h (0 Bft) O 90 0 min 8,7 C 0,0 km/h (0 Bft)
04.06.2016 02:25 10,6 C 7,1 C 88 % 1012,7 hPa 0,0 mm 0,0 km/h (0 Bft) O 90 0 min 8,7 C 0,0 km/h (0 Bft)
04.06.2016 02:30 10,7 C 7,1 C 88 % 1012,6 hPa 0,0 mm 0,0 km/h (0 Bft) O 90 0 min 8,8 C 0,0 km/h (0 Bft)
04.06.2016 02:35 10,6 C 7,1 C 88 % 1012,6 hPa 0,0 mm 0,0 km/h (0 Bft) O 90 0 min 8,7 C 0,0 km/h (0 Bft)
04.06.2016 02:40 10,7 C 7,1 C 88 % 1012,6 hPa 0,0 mm 0,0 km/h (0 Bft) O 90 0 min 8,8 C 0,0 km/h (0 Bft)
04.06.2016 02:45 10,7 C 7,2 C 88 % 1012,6 hPa 0,0 mm 0,0 km/h (0 Bft) O 90 0 min 8,8 C 0,0 km/h (0 Bft)
04.06.2016 02:50 10,7 C 7,2 C 88 % 1012,6 hPa 0,0 mm 0,0 km/h (0 Bft) O 90 0 min 8,8 C 0,0 km/h (0 Bft)
04.06.2016 02:55 10,8 C 7,2 C 88 % 1012,6 hPa 0,0 mm 0,0 km/h (0 Bft) O 90 0 min 8,9 C 0,0 km/h (0 Bft)
04.06.2016 03:00 10,9 C 7,3 C 88 % 1012,6 hPa 0,0 mm 0,0 km/h (0 Bft) O 90 0 min 9,0 C 0,0 km/h (0 Bft)
04.06.2016 03:05 10,9 C 7,3 C 88 % 1012,6 hPa 0,0 mm 0,0 km/h (0 Bft) O 90 0 min 9,0 C 0,0 km/h (0 Bft)
04.06.2016 03:10 11,0 C 7,3 C 88 % 1012,6 hPa 0,0 mm 0,0 km/h (0 Bft) O 90 0 min 9,1 C 0,0 km/h (0 Bft)
04.06.2016 03:15 11,0 C 7,3 C 88 % 1012,6 hPa 0,0 mm 0,0 km/h (0 Bft) O 90 0 min 9,1 C 0,0 km/h (0 Bft)
04.06.2016 03:20 11,0 C 7,3 C 88 % 1012,6 hPa 0,0 mm 0,0 km/h (0 Bft) O 90 0 min 9,1 C 0,0 km/h (0 Bft)
04.06.2016 03:25 11,0 C 7,3 C 88 % 1012,6 hPa 0,0 mm 0,0 km/h (0 Bft) O 90 0 min 9,1 C 0,0 km/h (0 Bft)
04.06.2016 03:30 10,9 C 7,3 C 88 % 1012,5 hPa 0,0 mm 0,0 km/h (0 Bft) O 90 0 min 9,0 C 0,0 km/h (0 Bft)
04.06.2016 03:35 10,9 C 7,3 C 88 % 1012,5 hPa 0,0 mm 0,0 km/h (0 Bft) O 90 0 min 9,0 C 0,0 km/h (0 Bft)
04.06.2016 03:40 10,9 C 7,3 C 88 % 1012,5 hPa 0,0 mm 0,0 km/h (0 Bft) O 90 0 min 9,0 C 0,0 km/h (0 Bft)
04.06.2016 03:45 10,9 C 7,3 C 88 % 1012,5 hPa 0,0 mm 0,0 km/h (0 Bft) O 90 0 min 9,0 C 0,0 km/h (0 Bft)
04.06.2016 03:50 10,8 C 7,2 C 88 % 1012,6 hPa 0,0 mm 0,0 km/h (0 Bft) O 90 0 min 8,9 C 0,0 km/h (0 Bft)
04.06.2016 03:55 10,8 C 7,2 C 88 % 1012,6 hPa 0,0 mm 0,0 km/h (0 Bft) O 90 0 min 8,9 C 0,0 km/h (0 Bft)
04.06.2016 04:00 10,8 C 7,2 C 88 % 1012,6 hPa 0,0 mm 0,0 km/h (0 Bft) O 90 0 min 8,9 C 0,0 km/h (0 Bft)
04.06.2016 04:05 10,8 C 7,2 C 88 % 1012,6 hPa 0,0 mm 0,0 km/h (0 Bft) O 90 0 min 8,9 C 0,0 km/h (0 Bft)
04.06.2016 04:10 10,7 C 7,2 C 88 % 1012,4 hPa 0,0 mm 0,0 km/h (0 Bft) O 90 0 min 8,8 C 0,0 km/h (0 Bft)
04.06.2016 04:15 10,8 C 7,2 C 88 % 1012,4 hPa 0,0 mm 0,0 km/h (0 Bft) O 90 0 min 8,9 C 0,0 km/h (0 Bft)
04.06.2016 04:20 10,8 C 7,2 C 88 % 1012,4 hPa 0,0 mm 0,0 km/h (0 Bft) O 90 0 min 8,9 C 0,0 km/h (0 Bft)
04.06.2016 04:25 10,7 C 7,2 C 88 % 1012,4 hPa 0,0 mm 0,0 km/h (0 Bft) O 90 0 min 8,8 C 0,0 km/h (0 Bft)
04.06.2016 04:27 10,7 C 7,2 C 88 % 1012,4 hPa 0,0 mm 0,0 km/h (0 Bft) O 90 0 min 8,8 C 0,0 km/h (0 Bft)
04.06.2016 04:30 10,7 C 7,1 C 88 % 1012,5 hPa 0,0 mm 0,0 km/h (0 Bft) O 90 0 min 8,8 C 0,0 km/h (0 Bft)
04.06.2016 04:35 10,7 C 7,1 C 88 % 1012,5 hPa 0,0 mm 0,0 km/h (0 Bft) O 90 0 min 8,8 C 0,0 km/h (0 Bft)
04.06.2016 04:40 10,7 C 7,2 C 88 % 1012,5 hPa 0,0 mm 0,0 km/h (0 Bft) O 90 0 min 8,8 C 0,0 km/h (0 Bft)
04.06.2016 04:45 10,7 C 7,2 C 88 % 1012,5 hPa 0,0 mm 0,0 km/h (0 Bft) O 90 0 min 8,8 C 0,0 km/h (0 Bft)
04.06.2016 04:50 10,7 C 7,2 C 88 % 1012,8 hPa 0,0 mm 0,0 km/h (0 Bft) O 90 0 min 8,8 C 0,0 km/h (0 Bft)
04.06.2016 04:55 10,7 C 7,2 C 88 % 1012,8 hPa 0,0 mm 0,0 km/h (0 Bft) O 90 0 min 8,8 C 0,0 km/h (0 Bft)
04.06.2016 05:00 10,8 C 7,2 C 88 % 1012,8 hPa 0,0 mm 0,0 km/h (0 Bft) O 90 0 min 8,9 C 0,0 km/h (0 Bft)
04.06.2016 05:05 10,8 C 7,2 C 88 % 1012,8 hPa 0,0 mm 0,0 km/h (0 Bft) O 90 0 min 8,9 C 0,0 km/h (0 Bft)
04.06.2016 05:10 10,7 C 7,2 C 88 % 1012,7 hPa 0,0 mm 0,0 km/h (0 Bft) O 90 0 min 8,8 C 0,0 km/h (0 Bft)
04.06.2016 05:15 10,8 C 7,2 C 88 % 1012,7 hPa 0,0 mm 0,0 km/h (0 Bft) O 90 0 min 8,9 C 0,0 km/h (0 Bft)
04.06.2016 05:20 10,7 C 7,2 C 88 % 1012,7 hPa 0,0 mm 0,0 km/h (0 Bft) O 90 0 min 8,8 C 0,0 km/h (0 Bft)
04.06.2016 05:25 10,7 C 7,3 C 88 % 1012,7 hPa 0,0 mm 0,0 km/h (0 Bft) O 90 0 min 8,8 C 0,0 km/h (0 Bft)
04.06.2016 05:30 10,8 C 7,2 C 88 % 1012,8 hPa 0,0 mm 0,0 km/h (0 Bft) O 90 0 min 8,9 C 0,0 km/h (0 Bft)
04.06.2016 05:35 10,8 C 7,3 C 88 % 1012,8 hPa 0,0 mm 0,0 km/h (0 Bft) O 90 0 min 8,9 C 0,0 km/h (0 Bft)
04.06.2016 05:40 10,8 C 7,3 C 88 % 1012,8 hPa 0,0 mm 0,0 km/h (0 Bft) O 90 0 min 8,9 C 0,0 km/h (0 Bft)
04.06.2016 05:45 10,8 C 7,3 C 88 % 1012,8 hPa 0,0 mm 0,0 km/h (0 Bft) O 90 0 min 8,9 C 0,0 km/h (0 Bft)
04.06.2016 05:50 10,8 C 7,3 C 88 % 1012,8 hPa 0,0 mm 0,0 km/h (0 Bft) O 90 0 min 8,9 C 0,0 km/h (0 Bft)
04.06.2016 05:55 10,8 C 7,3 C 88 % 1012,8 hPa 0,0 mm 0,0 km/h (0 Bft) O 90 0 min 8,9 C 0,0 km/h (0 Bft)
04.06.2016 06:00 10,9 C 7,3 C 88 % 1012,8 hPa 0,0 mm 0,0 km/h (0 Bft) O 90 0 min 9,0 C 0,0 km/h (0 Bft)
04.06.2016 06:05 10,9 C 7,3 C 88 % 1012,8 hPa 0,0 mm 0,0 km/h (0 Bft) O 90 0 min 9,0 C 0,0 km/h (0 Bft)
04.06.2016 06:10 10,9 C 7,3 C 88 % 1013,0 hPa 0,0 mm 0,0 km/h (0 Bft) O 90 0 min 9,0 C 0,0 km/h (0 Bft)
04.06.2016 06:15 11,0 C 7,4 C 88 % 1013,0 hPa 0,0 mm 0,0 km/h (0 Bft) O 90 0 min 9,1 C 0,0 km/h (0 Bft)
04.06.2016 06:20 11,0 C 7,4 C 88 % 1013,0 hPa 0,0 mm 0,0 km/h (0 Bft) O 90 0 min 9,1 C 0,0 km/h (0 Bft)
04.06.2016 06:25 11,0 C 7,4 C 88 % 1013,0 hPa 0,0 mm 0,0 km/h (0 Bft) O 90 0 min 9,1 C 0,0 km/h (0 Bft)
04.06.2016 06:30 11,0 C 7,5 C 88 % 1013,1 hPa 0,0 mm 0,0 km/h (0 Bft) O 90 0 min 9,1 C 0,0 km/h (0 Bft)
04.06.2016 06:35 11,0 C 7,5 C 88 % 1013,1 hPa 0,0 mm 0,0 km/h (0 Bft) O 90 0 min 9,1 C 0,0 km/h (0 Bft)
04.06.2016 06:40 11,1 C 7,5 C 88 % 1013,1 hPa 0,0 mm 0,0 km/h (0 Bft) O 90 0 min 9,2 C 0,0 km/h (0 Bft)
04.06.2016 06:45 11,2 C 7,6 C 88 % 1013,1 hPa 0,0 mm 0,0 km/h (0 Bft) O 90 0 min 9,3 C 0,0 km/h (0 Bft)
04.06.2016 06:50 11,3 C 7,7 C 88 % 1013,1 hPa 0,0 mm 0,0 km/h (0 Bft) O 90 0 min 9,4 C 0,0 km/h (0 Bft)
04.06.2016 06:55 11,3 C 7,7 C 88 % 1013,1 hPa 0,0 mm 0,0 km/h (0 Bft) O 90 0 min 9,4 C 0,0 km/h (0 Bft)
04.06.2016 07:00 11,4 C 7,9 C 88 % 1013,1 hPa 0,0 mm 0,0 km/h (0 Bft) O 90 0 min 9,5 C 0,0 km/h (0 Bft)
04.06.2016 07:05 11,5 C 7,9 C 88 % 1013,1 hPa 0,0 mm 0,0 km/h (0 Bft) O 90 0 min 9,6 C 0,0 km/h (0 Bft)
04.06.2016 07:10 11,7 C 7,9 C 89 % 1013,2 hPa 0,0 mm 0,0 km/h (0 Bft) O 90 0 min 9,9 C 0,0 km/h (0 Bft)
04.06.2016 07:15 11,8 C 8,0 C 89 % 1013,2 hPa 0,0 mm 0,0 km/h (0 Bft) O 90 0 min 10,0 C 0,0 km/h (0 Bft)
04.06.2016 07:20 11,9 C 8,1 C 89 % 1013,2 hPa 0,0 mm 0,0 km/h (0 Bft) O 90 0 min 10,1 C 0,0 km/h (0 Bft)
04.06.2016 07:25 11,9 C 8,1 C 89 % 1013,2 hPa 0,0 mm 0,0 km/h (0 Bft) O 90 0 min 10,1 C 0,0 km/h (0 Bft)
04.06.2016 07:28 11,9 C 8,1 C 89 % 1013,2 hPa 0,0 mm 0,0 km/h (0 Bft) O 90 0 min 10,1 C 0,0 km/h (0 Bft)
04.06.2016 07:30 12,1 C 8,4 C 88 % 1013,3 hPa 0,0 mm 0,0 km/h (0 Bft) O 90 0 min 10,2 C 0,0 km/h (0 Bft)
04.06.2016 07:35 12,1 C 8,4 C 88 % 1013,3 hPa 0,0 mm 0,0 km/h (0 Bft) O 90 0 min 10,2 C 0,0 km/h (0 Bft)
04.06.2016 07:40 12,2 C 8,5 C 88 % 1013,3 hPa 0,0 mm 0,0 km/h (0 Bft) O 90 0 min 10,3 C 0,0 km/h (0 Bft)
04.06.2016 07:45 12,4 C 8,6 C 88 % 1013,3 hPa 0,0 mm 0,0 km/h (0 Bft) O 90 0 min 10,5 C 0,0 km/h (0 Bft)
04.06.2016 07:50 12,7 C 8,9 C 89 % 1013,2 hPa 0,0 mm 0,0 km/h (0 Bft) O 90 0 min 10,9 C 0,0 km/h (0 Bft)
04.06.2016 07:55 13,0 C 9,1 C 88 % 1013,2 hPa 0,0 mm 0,0 km/h (0 Bft) O 90 0 min 11,1 C 0,0 km/h (0 Bft)
04.06.2016 08:00 13,1 C 9,1 C 88 % 1013,2 hPa 0,0 mm 0,0 km/h (0 Bft) O 90 0 min 11,2 C 0,0 km/h (0 Bft)
04.06.2016 08:05 13,2 C 9,3 C 88 % 1013,2 hPa 0,0 mm 0,0 km/h (0 Bft) O 90 0 min 11,3 C 0,0 km/h (0 Bft)
04.06.2016 08:10 13,4 C 9,3 C 88 % 1013,6 hPa 0,0 mm 0,0 km/h (0 Bft) O 90 0 min 11,5 C 0,0 km/h (0 Bft)
04.06.2016 08:15 13,5 C 9,4 C 88 % 1013,6 hPa 0,0 mm 0,0 km/h (0 Bft) O 90 0 min 11,6 C 0,0 km/h (0 Bft)
04.06.2016 08:20 13,8 C 9,5 C 88 % 1013,6 hPa 0,0 mm 0,0 km/h (0 Bft) O 90 0 min 11,8 C 0,0 km/h (0 Bft)
04.06.2016 08:25 14,5 C 10,1 C 88 % 1013,6 hPa 0,0 mm 0,0 km/h (0 Bft) O 90 0 min 12,5 C 0,0 km/h (0 Bft)
04.06.2016 08:30 14,9 C 10,1 C 88 % 1013,2 hPa 0,0 mm 0,0 km/h (0 Bft) O 90 0 min 12,9 C 0,0 km/h (0 Bft)
04.06.2016 08:35 14,8 C 9,9 C 87 % 1013,2 hPa 0,0 mm 0,0 km/h (0 Bft) O 90 0 min 12,7 C 0,0 km/h (0 Bft)
04.06.2016 08:40 14,7 C 9,9 C 87 % 1013,2 hPa 0,0 mm 0,0 km/h (0 Bft) O 90 0 min 12,6 C 0,0 km/h (0 Bft)
04.06.2016 08:45 14,9 C 10,1 C 87 % 1013,2 hPa 0,0 mm 0,0 km/h (0 Bft) O 90 0 min 12,8 C 0,0 km/h (0 Bft)
04.06.2016 08:50 15,0 C 10,1 C 86 % 1013,6 hPa 0,0 mm 0,0 km/h (0 Bft) O 90 0 min 12,7 C 0,0 km/h (0 Bft)
04.06.2016 08:55 15,3 C 10,6 C 86 % 1013,6 hPa 0,0 mm 0,0 km/h (0 Bft) O 90 0 min 13,0 C 0,0 km/h (0 Bft)
04.06.2016 09:00 16,4 C 11,1 C 84 % 1013,6 hPa 0,0 mm 0,0 km/h (0 Bft) O 90 0 min 13,7 C 0,0 km/h (0 Bft)
04.06.2016 09:05 16,5 C 11,1 C 83 % 1013,6 hPa 0,0 mm 0,0 km/h (0 Bft) O 90 0 min 13,6 C 0,0 km/h (0 Bft)
04.06.2016 09:10 16,6 C 10,9 C 80 % 1013,5 hPa 0,0 mm 0,0 km/h (0 Bft) O 90 0 min 13,1 C 0,0 km/h (0 Bft)
04.06.2016 09:15 15,9 C 10,8 C 80 % 1013,5 hPa 0,0 mm 0,0 km/h (0 Bft) O 90 0 min 12,5 C 0,0 km/h (0 Bft)
04.06.2016 09:20 15,7 C 10,5 C 79 % 1013,5 hPa 0,0 mm 0,0 km/h (0 Bft) O 90 0 min 12,1 C 0,0 km/h (0 Bft)
04.06.2016 09:25 15,9 C 10,9 C 79 % 1013,5 hPa 0,0 mm 0,0 km/h (0 Bft) O 90 0 min 12,3 C 0,0 km/h (0 Bft)
04.06.2016 09:30 16,0 C 11,1 C 78 % 1013,9 hPa 0,0 mm 0,0 km/h (0 Bft) O 90 0 min 12,2 C 0,0 km/h (0 Bft)
04.06.2016 09:35 16,3 C 11,5 C 78 % 1013,9 hPa 0,0 mm 0,0 km/h (0 Bft) O 90 0 min 12,5 C 0,0 km/h (0 Bft)
04.06.2016 09:40 16,4 C 11,5 C 78 % 1013,9 hPa 0,0 mm 0,0 km/h (0 Bft) O 90 0 min 12,6 C 0,0 km/h (0 Bft)
04.06.2016 09:45 16,3 C 11,5 C 77 % 1013,9 hPa 0,0 mm 0,0 km/h (0 Bft) O 90 0 min 12,3 C 0,0 km/h (0 Bft)
04.06.2016 09:50 16,7 C 11,5 C 76 % 1014,0 hPa 0,0 mm 0,0 km/h (0 Bft) O 90 0 min 12,4 C 0,0 km/h (0 Bft)
04.06.2016 09:55 17,1 C 11,8 C 74 % 1014,0 hPa 0,0 mm 0,0 km/h (0 Bft) O 90 0 min 12,4 C 0,0 km/h (0 Bft)
04.06.2016 10:00 17,2 C 11,5 C 73 % 1014,0 hPa 0,0 mm 0,0 km/h (0 Bft) O 90 0 min 12,3 C 0,0 km/h (0 Bft)
04.06.2016 10:05 17,8 C 12,5 C 74 % 1014,0 hPa 0,0 mm 0,0 km/h (0 Bft) O 90 0 min 13,1 C 0,0 km/h (0 Bft)
04.06.2016 10:10 17,5 C 12,3 C 73 % 1014,1 hPa 0,0 mm 0,0 km/h (0 Bft) O 90 0 min 12,6 C 0,0 km/h (0 Bft)
04.06.2016 10:15 17,6 C 23,6 C 73 % 1014,1 hPa 0,0 mm 1,5 km/h (1 Bft) N 360 5 min 12,7 C 0,0 km/h (0 Bft)
04.06.2016 10:20 18,1 C 24,0 C 73 % 1014,1 hPa 0,0 mm 2,4 km/h (1 Bft) N 360 5 min 13,2 C 16,1 km/h (3 Bft)
04.06.2016 10:25 18,6 C 25,0 C 72 % 1014,1 hPa 0,0 mm 3,3 km/h (1 Bft) NW 315 5 min 13,4 C 7,2 km/h (2 Bft)
04.06.2016 10:28 17,9 C 23,6 C 72 % 1014,3 hPa 0,0 mm 6,3 km/h (2 Bft) NW 315 3 min 12,8 C 10,7 km/h (2 Bft)
04.06.2016 10:29 17,9 C 23,6 C 72 % 1014,3 hPa 0,0 mm 6,3 km/h (2 Bft) NW 315 1 min 12,8 C 10,7 km/h (2 Bft)
04.06.2016 10:30 17,9 C 23,6 C 72 % 1014,3 hPa 0,0 mm 6,3 km/h (2 Bft) NW 315 1 min 12,8 C 10,7 km/h (2 Bft)
04.06.2016 10:35 17,3 C 21,9 C 72 % 1014,3 hPa 0,0 mm 7,2 km/h (2 Bft) N-NW 337 5 min 12,2 C 5,4 km/h (1 Bft)
04.06.2016 10:40 17,2 C 20,7 C 72 % 1014,3 hPa 0,0 mm 8,0 km/h (2 Bft) NW 315 5 min 12,1 C 17,3 km/h (3 Bft)
04.06.2016 10:45 16,9 C 20,1 C 73 % 1014,3 hPa 0,0 mm 7,2 km/h (2 Bft) W-NW 292 5 min 12,0 C 0,0 km/h (0 Bft)
04.06.2016 10:50 16,7 C 19,2 C 73 % 1014,5 hPa 0,0 mm 5,1 km/h (1 Bft) W-NW 292 5 min 11,8 C 4,2 km/h (1 Bft)
04.06.2016 10:55 16,5 C 18,8 C 73 % 1014,5 hPa 0,0 mm 3,6 km/h (1 Bft) SO 135 0 min 11,6 C 0,0 km/h (0 Bft)
04.06.2016 11:00 16,2 C 18,3 C 74 % 1014,5 hPa 0,0 mm 3,9 km/h (1 Bft) NO 45 0 min 11,6 C 4,8 km/h (1 Bft)
04.06.2016 11:05 16,0 C 17,3 C 74 % 1014,5 hPa 0,0 mm 3,0 km/h (1 Bft) N-NO 22 0 min 11,4 C 0,0 km/h (0 Bft)
04.06.2016 11:10 15,7 C 15,8 C 76 % 1014,6 hPa 0,7 mm 0,9 km/h (0 Bft) W-NW 292 0 min 11,5 C 0,0 km/h (0 Bft)
04.06.2016 11:15 15,6 C 15,2 C 76 % 1014,6 hPa 0,0 mm 0,0 km/h (0 Bft) O-NO 67 0 min 11,4 C 0,0 km/h (0 Bft)
04.06.2016 11:20 14,7 C 14,7 C 78 % 1014,6 hPa 2,1 mm 0,6 km/h (0 Bft) S 180 0 min 10,9 C 3,9 km/h (1 Bft)
04.06.2016 11:25 14,4 C 14,5 C 79 % 1014,6 hPa 1,4 mm 0,9 km/h (0 Bft) O-NO 67 0 min 10,8 C 8,6 km/h (2 Bft)
04.06.2016 11:30 14,5 C 14,6 C 80 % 1014,4 hPa 0,0 mm 2,4 km/h (1 Bft) NO 45 0 min 11,1 C 4,5 km/h (1 Bft)
04.06.2016 11:35 14,7 C 14,9 C 81 % 1014,4 hPa 0,0 mm 2,7 km/h (1 Bft) S-SO 157 0 min 11,5 C 0,0 km/h (0 Bft)
04.06.2016 11:40 15,0 C 15,7 C 81 % 1014,4 hPa 0,0 mm 1,5 km/h (1 Bft) O-NO 67 0 min 11,8 C 0,0 km/h (0 Bft)
04.06.2016 11:45 15,1 C 15,6 C 81 % 1014,4 hPa 0,0 mm 0,6 km/h (0 Bft) N-NO 22 0 min 11,9 C 0,0 km/h (0 Bft)
04.06.2016 11:50 15,1 C 15,4 C 81 % 1014,4 hPa 0,0 mm 1,2 km/h (1 Bft) N-NO 22 0 min 11,9 C 0,0 km/h (0 Bft)
04.06.2016 11:55 15,2 C 15,5 C 80 % 1014,4 hPa 0,0 mm 1,5 km/h (1 Bft) N-NW 337 0 min 11,8 C 6,6 km/h (2 Bft)
04.06.2016 12:00 15,6 C 15,9 C 80 % 1014,4 hPa 0,0 mm 1,2 km/h (1 Bft) N 360 0 min 12,2 C 0,0 km/h (0 Bft)
04.06.2016 12:05 15,7 C 16,3 C 79 % 1014,4 hPa 0,0 mm 0,9 km/h (0 Bft) N-NO 22 0 min 12,1 C 0,0 km/h (0 Bft)
04.06.2016 12:10 16,0 C 17,7 C 79 % 1014,4 hPa 0,0 mm 0,3 km/h (0 Bft) N-NO 22 0 min 12,4 C 0,0 km/h (0 Bft)
04.06.2016 12:15 16,2 C 18,3 C 79 % 1014,4 hPa 0,0 mm 0,0 km/h (0 Bft) S-SW 202 0 min 12,6 C 0,0 km/h (0 Bft)
04.06.2016 12:20 16,4 C 18,8 C 79 % 1014,4 hPa 0,0 mm 0,9 km/h (0 Bft) NO 45 0 min 12,7 C 0,0 km/h (0 Bft)
04.06.2016 12:25 16,8 C 19,0 C 78 % 1014,4 hPa 0,0 mm 0,9 km/h (0 Bft) N-NW 337 0 min 12,9 C 0,0 km/h (0 Bft)
04.06.2016 12:30 16,9 C 19,3 C 77 % 1014,4 hPa 0,0 mm 1,5 km/h (1 Bft) W-NW 292 0 min 12,8 C 0,0 km/h (0 Bft)
04.06.2016 12:35 16,8 C 19,7 C 76 % 1014,4 hPa 0,0 mm 1,2 km/h (1 Bft) S 180 0 min 12,5 C 0,0 km/h (0 Bft)
04.06.2016 12:40 15,9 C 19,5 C 77 % 1014,4 hPa 0,0 mm 0,0 km/h (0 Bft) SO 135 5 min 11,9 C 0,0 km/h (0 Bft)
04.06.2016 12:45 15,6 C 19,3 C 77 % 1014,4 hPa 0,0 mm 0,0 km/h (0 Bft) SO 135 5 min 11,6 C 0,0 km/h (0 Bft)
04.06.2016 12:50 15,6 C 19,3 C 78 % 1014,2 hPa 0,0 mm 0,0 km/h (0 Bft) S-SO 157 5 min 11,8 C 0,0 km/h (0 Bft)
04.06.2016 12:55 15,7 C 19,3 C 79 % 1014,2 hPa 0,0 mm 0,0 km/h (0 Bft) S-SW 202 5 min 12,1 C 0,0 km/h (0 Bft)
04.06.2016 13:00 16,1 C 19,1 C 79 % 1014,2 hPa 0,0 mm 0,3 km/h (0 Bft) W-SW 247 0 min 12,5 C 0,0 km/h (0 Bft)
04.06.2016 13:05 16,4 C 19,3 C 79 % 1014,2 hPa 0,0 mm 0,9 km/h (0 Bft) W 270 0 min 12,7 C 14,9 km/h (3 Bft)
04.06.2016 13:10 16,6 C 19,7 C 78 % 1014,2 hPa 0,0 mm 0,9 km/h (0 Bft) O-SO 112 0 min 12,7 C 0,0 km/h (0 Bft)
04.06.2016 13:15 16,6 C 20,5 C 78 % 1014,2 hPa 0,0 mm 0,9 km/h (0 Bft) NW 315 5 min 12,7 C 0,0 km/h (0 Bft)
04.06.2016 13:20 16,7 C 21,4 C 78 % 1014,2 hPa 0,0 mm 0,0 km/h (0 Bft) O 90 5 min 12,8 C 0,0 km/h (0 Bft)
04.06.2016 13:25 16,6 C 21,7 C 76 % 1014,2 hPa 0,0 mm 0,0 km/h (0 Bft) SO 135 5 min 12,3 C 0,0 km/h (0 Bft)
04.06.2016 13:28 17,2 C 22,3 C 75 % 1014,5 hPa 0,0 mm 1,5 km/h (1 Bft) N-NO 22 3 min 12,7 C 6,0 km/h (2 Bft)
04.06.2016 13:30 17,2 C 22,3 C 75 % 1014,5 hPa 0,0 mm 1,5 km/h (1 Bft) N-NO 22 2 min 12,7 C 6,0 km/h (2 Bft)
04.06.2016 13:35 17,5 C 22,6 C 75 % 1014,5 hPa 0,0 mm 2,7 km/h (1 Bft) NO 45 5 min 13,0 C 8,9 km/h (2 Bft)
04.06.2016 13:40 17,9 C 22,7 C 74 % 1014,5 hPa 0,0 mm 4,5 km/h (1 Bft) O 90 5 min 13,2 C 9,8 km/h (2 Bft)
04.06.2016 13:45 18,7 C 24,3 C 73 % 1014,5 hPa 0,0 mm 4,5 km/h (1 Bft) N-NO 22 5 min 13,8 C 14,3 km/h (3 Bft)
04.06.2016 13:50 18,5 C 25,0 C 67 % 1014,4 hPa 0,0 mm 8,0 km/h (2 Bft) NO 45 5 min 12,3 C 18,2 km/h (3 Bft)
04.06.2016 13:55 18,5 C 24,9 C 67 % 1014,4 hPa 0,0 mm 10,7 km/h (2 Bft) N-NW 337 5 min 12,3 C 9,8 km/h (2 Bft)
04.06.2016 14:00 18,6 C 24,9 C 67 % 1014,4 hPa 0,0 mm 9,8 km/h (2 Bft) O-NO 67 5 min 12,3 C 19,1 km/h (3 Bft)
04.06.2016 14:05 18,7 C 25,0 C 65 % 1014,4 hPa 0,0 mm 8,0 km/h (2 Bft) NW 315 5 min 12,0 C 0,0 km/h (0 Bft)
04.06.2016 14:10 19,0 C 25,8 C 62 % 1014,6 hPa 0,0 mm 7,2 km/h (2 Bft) O-NO 67 5 min 11,6 C 13,4 km/h (3 Bft)
04.06.2016 14:15 18,4 C 24,8 C 62 % 1014,6 hPa 0,0 mm 6,6 km/h (2 Bft) SO 135 5 min 11,0 C 0,0 km/h (0 Bft)
04.06.2016 14:20 17,9 C 23,4 C 63 % 1014,6 hPa 0,0 mm 6,0 km/h (2 Bft) O-NO 67 5 min 10,8 C 8,0 km/h (2 Bft)
04.06.2016 14:25 17,7 C 22,4 C 66 % 1014,6 hPa 0,0 mm 4,8 km/h (1 Bft) NO 45 5 min 11,3 C 6,0 km/h (2 Bft)
04.06.2016 14:30 17,5 C 21,4 C 67 % 1014,5 hPa 0,0 mm 5,1 km/h (1 Bft) O-NO 67 5 min 11,3 C 6,0 km/h (2 Bft)
04.06.2016 14:35 17,5 C 21,0 C 69 % 1014,5 hPa 0,0 mm 3,9 km/h (1 Bft) NO 45 5 min 11,7 C 6,9 km/h (2 Bft)
04.06.2016 14:40 17,4 C 20,5 C 70 % 1014,5 hPa 0,0 mm 3,9 km/h (1 Bft) O-NO 67 5 min 11,9 C 6,3 km/h (2 Bft)
04.06.2016 14:45 17,2 C 20,3 C 70 % 1014,5 hPa 0,0 mm 3,9 km/h (1 Bft) O-SO 112 5 min 11,7 C 5,4 km/h (1 Bft)
04.06.2016 14:50 17,2 C 20,1 C 70 % 1014,6 hPa 0,0 mm 1,8 km/h (1 Bft) O-SO 112 5 min 11,7 C 0,0 km/h (0 Bft)
04.06.2016 14:55 17,2 C 20,0 C 69 % 1014,6 hPa 0,0 mm 1,5 km/h (1 Bft) N-NO 22 5 min 11,5 C 10,1 km/h (2 Bft)
04.06.2016 15:00 17,0 C 19,5 C 70 % 1014,6 hPa 0,0 mm 3,6 km/h (1 Bft) O-SO 112 0 min 11,5 C 5,7 km/h (1 Bft)
04.06.2016 15:05 17,1 C 19,6 C 70 % 1014,6 hPa 0,0 mm 3,6 km/h (1 Bft) S-SO 157 0 min 11,6 C 0,0 km/h (0 Bft)
04.06.2016 15:10 17,2 C 19,9 C 70 % 1014,3 hPa 0,0 mm 2,1 km/h (1 Bft) SW 225 5 min 11,7 C 0,0 km/h (0 Bft)
04.06.2016 15:15 17,2 C 20,1 C 70 % 1014,3 hPa 0,0 mm 1,8 km/h (1 Bft) O-SO 112 5 min 11,7 C 0,0 km/h (0 Bft)
04.06.2016 15:20 17,2 C 20,5 C 70 % 1014,3 hPa 0,0 mm 2,4 km/h (1 Bft) NO 45 5 min 11,7 C 11,9 km/h (2 Bft)
04.06.2016 15:25 17,2 C 20,3 C 68 % 1014,3 hPa 0,0 mm 3,9 km/h (1 Bft) N-NO 22 5 min 11,2 C 9,8 km/h (2 Bft)
04.06.2016 15:30 17,2 C 20,4 C 66 % 1014,4 hPa 0,0 mm 7,7 km/h (2 Bft) NO 45 5 min 10,8 C 13,1 km/h (3 Bft)
04.06.2016 15:35 17,3 C 20,2 C 65 % 1014,4 hPa 0,0 mm 9,2 km/h (2 Bft) O-SO 112 5 min 10,7 C 11,3 km/h (2 Bft)
04.06.2016 15:40 17,2 C 19,7 C 65 % 1014,4 hPa 0,0 mm 9,5 km/h (2 Bft) N-NO 22 5 min 10,6 C 8,9 km/h (2 Bft)
04.06.2016 15:45 17,2 C 19,5 C 65 % 1014,4 hPa 0,0 mm 8,0 km/h (2 Bft) NO 45 5 min 10,6 C 8,9 km/h (2 Bft)
04.06.2016 15:50 17,1 C 19,3 C 65 % 1014,4 hPa 0,0 mm 6,6 km/h (2 Bft) O 90 0 min 10,5 C 0,0 km/h (0 Bft)
04.06.2016 15:55 17,2 C 19,3 C 65 % 1014,4 hPa 0,0 mm 4,8 km/h (1 Bft) O-NO 67 0 min 10,6 C 3,0 km/h (1 Bft)
04.06.2016 16:00 17,2 C 19,8 C 65 % 1014,4 hPa 0,0 mm 1,8 km/h (1 Bft) NO 45 5 min 10,6 C 4,2 km/h (1 Bft)
04.06.2016 16:05 17,1 C 19,6 C 65 % 1014,4 hPa 0,0 mm 3,0 km/h (1 Bft) N-NO 22 5 min 10,5 C 4,8 km/h (1 Bft)
04.06.2016 16:10 17,0 C 19,4 C 66 % 1014,2 hPa 0,0 mm 3,0 km/h (1 Bft) N-NO 22 5 min 10,6 C 0,0 km/h (0 Bft)
04.06.2016 16:15 17,1 C 19,5 C 67 % 1014,2 hPa 0,0 mm 0,9 km/h (0 Bft) NW 315 0 min 10,9 C 0,0 km/h (0 Bft)
04.06.2016 16:20 17,2 C 19,7 C 69 % 1014,2 hPa 0,0 mm 0,0 km/h (0 Bft) W 270 0 min 11,5 C 0,0 km/h (0 Bft)
04.06.2016 16:25 17,1 C 19,8 C 70 % 1014,2 hPa 0,0 mm 0,0 km/h (0 Bft) S-SO 157 5 min 11,6 C 0,0 km/h (0 Bft)
04.06.2016 16:28 17,0 C 19,6 C 70 % 1014,2 hPa 0,0 mm 0,0 km/h (0 Bft) O 90 0 min 11,5 C 0,0 km/h (0 Bft)
04.06.2016 16:31 17,0 C 19,6 C 70 % 1014,2 hPa 0,0 mm 0,0 km/h (0 Bft) O 90 0 min 11,5 C 0,0 km/h (0 Bft)
04.06.2016 16:35 17,0 C 19,0 C 70 % 1014,2 hPa 0,0 mm 0,3 km/h (0 Bft) S 180 0 min 11,5 C 0,0 km/h (0 Bft)
04.06.2016 16:40 16,9 C 18,2 C 71 % 1014,2 hPa 0,0 mm 0,3 km/h (0 Bft) O-NO 67 0 min 11,6 C 0,0 km/h (0 Bft)
04.06.2016 16:45 16,9 C 17,8 C 72 % 1014,2 hPa 0,0 mm 0,0 km/h (0 Bft) NO 45 0 min 11,8 C 0,0 km/h (0 Bft)
04.06.2016 16:50 16,8 C 17,8 C 72 % 1014,0 hPa 0,0 mm 0,3 km/h (0 Bft) W 270 0 min 11,7 C 0,0 km/h (0 Bft)
04.06.2016 16:55 16,9 C 17,8 C 72 % 1014,0 hPa 0,0 mm 0,3 km/h (0 Bft) W-NW 292 0 min 11,8 C 0,0 km/h (0 Bft)
04.06.2016 17:00 17,0 C 17,8 C 72 % 1014,0 hPa 0,0 mm 1,2 km/h (1 Bft) W-NW 292 0 min 11,9 C 7,2 km/h (2 Bft)
04.06.2016 17:05 16,9 C 17,8 C 73 % 1014,0 hPa 0,0 mm 3,0 km/h (1 Bft) S-SW 202 0 min 12,0 C 7,2 km/h (2 Bft)
04.06.2016 17:10 16,5 C 17,6 C 73 % 1014,2 hPa 0,0 mm 4,5 km/h (1 Bft) O-SO 112 0 min 11,6 C 0,0 km/h (0 Bft)
04.06.2016 17:15 16,4 C 17,4 C 74 % 1014,2 hPa 0,0 mm 3,6 km/h (1 Bft) W-SW 247 0 min 11,8 C 8,3 km/h (2 Bft)
04.06.2016 17:20 16,0 C 17,2 C 74 % 1014,2 hPa 0,0 mm 4,2 km/h (1 Bft) S 180 0 min 11,4 C 6,0 km/h (2 Bft)
04.06.2016 17:25 15,9 C 17,1 C 75 % 1014,2 hPa 0,0 mm 5,7 km/h (1 Bft) W-SW 247 0 min 11,5 C 13,4 km/h (3 Bft)
04.06.2016 17:30 15,9 C 17,1 C 75 % 1014,2 hPa 0,0 mm 6,6 km/h (2 Bft) W-NW 292 0 min 11,5 C 11,6 km/h (2 Bft)
04.06.2016 17:35 15,9 C 17,2 C 75 % 1014,2 hPa 0,0 mm 8,0 km/h (2 Bft) W 270 0 min 11,5 C 14,6 km/h (3 Bft)
04.06.2016 17:40 16,0 C 17,3 C 73 % 1014,2 hPa 0,0 mm 9,8 km/h (2 Bft) NW 315 0 min 11,2 C 22,7 km/h (4 Bft)
04.06.2016 17:45 16,0 C 17,4 C 73 % 1014,2 hPa 0,0 mm 7,2 km/h (2 Bft) W-SW 247 0 min 11,2 C 8,6 km/h (2 Bft)
04.06.2016 17:50 16,4 C 18,0 C 73 % 1014,2 hPa 0,0 mm 6,6 km/h (2 Bft) W-NW 292 0 min 11,5 C 11,0 km/h (2 Bft)
04.06.2016 17:55 16,4 C 18,2 C 72 % 1014,2 hPa 0,0 mm 8,3 km/h (2 Bft) W 270 0 min 11,3 C 11,6 km/h (2 Bft)
04.06.2016 18:00 16,6 C 18,5 C 72 % 1014,2 hPa 0,0 mm 10,7 km/h (2 Bft) W 270 0 min 11,5 C 14,9 km/h (3 Bft)
04.06.2016 18:05 16,7 C 18,8 C 71 % 1014,2 hPa 0,0 mm 10,1 km/h (2 Bft) W-SW 247 0 min 11,4 C 7,2 km/h (2 Bft)
04.06.2016 18:10 17,1 C 19,1 C 71 % 1014,2 hPa 0,0 mm 9,5 km/h (2 Bft) NW 315 0 min 11,8 C 13,4 km/h (3 Bft)
04.06.2016 18:15 17,1 C 19,3 C 70 % 1014,2 hPa 0,0 mm 9,5 km/h (2 Bft) W-SW 247 0 min 11,6 C 8,9 km/h (2 Bft)
04.06.2016 18:20 17,1 C 19,1 C 70 % 1014,2 hPa 0,0 mm 9,5 km/h (2 Bft) S 180 0 min 11,6 C 10,7 km/h (2 Bft)
04.06.2016 18:25 17,1 C 19,0 C 70 % 1014,2 hPa 0,0 mm 8,9 km/h (2 Bft) W 270 0 min 11,6 C 6,6 km/h (2 Bft)
04.06.2016 18:30 17,0 C 18,9 C 70 % 1014,2 hPa 0,0 mm 8,9 km/h (2 Bft) W-NW 292 0 min 11,5 C 14,6 km/h (3 Bft)
04.06.2016 18:35 17,0 C 18,9 C 70 % 1014,2 hPa 0,0 mm 8,3 km/h (2 Bft) W 270 0 min 11,5 C 11,6 km/h (2 Bft)
04.06.2016 18:40 17,1 C 19,2 C 70 % 1014,2 hPa 0,0 mm 6,0 km/h (2 Bft) W-NW 292 0 min 11,6 C 10,7 km/h (2 Bft)
04.06.2016 18:45 16,8 C 18,8 C 70 % 1014,2 hPa 0,0 mm 5,4 km/h (1 Bft) W-SW 247 0 min 11,3 C 9,5 km/h (2 Bft)
04.06.2016 18:50 16,5 C 18,2 C 70 % 1014,3 hPa 0,0 mm 4,8 km/h (1 Bft) W-SW 247 0 min 11,0 C 0,0 km/h (0 Bft)
04.06.2016 18:55 16,4 C 18,0 C 70 % 1014,3 hPa 0,0 mm 2,7 km/h (1 Bft) W 270 0 min 10,9 C 0,0 km/h (0 Bft)
04.06.2016 19:00 16,5 C 18,0 C 70 % 1014,3 hPa 0,0 mm 0,6 km/h (0 Bft) SW 225 0 min 11,0 C 0,0 km/h (0 Bft)
04.06.2016 19:05 16,5 C 18,1 C 70 % 1014,3 hPa 0,0 mm 0,3 km/h (0 Bft) NW 315 0 min 11,0 C 0,0 km/h (0 Bft)
04.06.2016 19:10 16,8 C 19,1 C 70 % 1014,2 hPa 0,0 mm 0,9 km/h (0 Bft) W-SW 247 0 min 11,3 C 0,0 km/h (0 Bft)
04.06.2016 19:15 16,8 C 19,1 C 70 % 1014,2 hPa 0,0 mm 0,9 km/h (0 Bft) W-NW 292 0 min 11,3 C 0,0 km/h (0 Bft)
04.06.2016 19:20 16,9 C 19,5 C 70 % 1014,2 hPa 0,0 mm 1,5 km/h (1 Bft) W-SW 247 0 min 11,4 C 0,0 km/h (0 Bft)
04.06.2016 19:25 16,9 C 19,5 C 70 % 1014,2 hPa 0,0 mm 3,0 km/h (1 Bft) S-SO 157 5 min 11,4 C 10,4 km/h (2 Bft)
04.06.2016 19:30 16,8 C 19,0 C 70 % 1014,3 hPa 0,0 mm 5,7 km/h (1 Bft) W 270 0 min 11,3 C 5,4 km/h (1 Bft)
04.06.2016 19:32 16,8 C 19,0 C 70 % 1014,3 hPa 0,0 mm 5,7 km/h (1 Bft) W 270 0 min 11,3 C 5,4 km/h (1 Bft)
04.06.2016 19:35 16,7 C 18,6 C 70 % 1014,3 hPa 0,0 mm 5,1 km/h (1 Bft) W-NW 292 0 min 11,2 C 0,0 km/h (0 Bft)
04.06.2016 19:40 16,6 C 18,1 C 70 % 1014,3 hPa 0,0 mm 1,2 km/h (1 Bft) W-SW 247 0 min 11,1 C 6,0 km/h (2 Bft)
04.06.2016 19:45 16,5 C 17,9 C 70 % 1014,3 hPa 0,0 mm 0,3 km/h (0 Bft) N-NW 337 0 min 11,0 C 0,0 km/h (0 Bft)
04.06.2016 19:50 16,5 C 17,7 C 71 % 1014,4 hPa 0,0 mm 0,3 km/h (0 Bft) NW 315 0 min 11,2 C 0,0 km/h (0 Bft)
04.06.2016 19:55 16,5 C 17,5 C 71 % 1014,4 hPa 0,0 mm 0,3 km/h (0 Bft) W-SW 247 0 min 11,2 C 0,0 km/h (0 Bft)
04.06.2016 20:00 16,5 C 17,3 C 71 % 1014,4 hPa 0,0 mm 0,6 km/h (0 Bft) W-NW 292 0 min 11,2 C 0,0 km/h (0 Bft)
04.06.2016 20:05 16,4 C 17,2 C 71 % 1014,4 hPa 0,0 mm 0,3 km/h (0 Bft) W 270 0 min 11,1 C 0,0 km/h (0 Bft)
04.06.2016 20:10 16,3 C 17,0 C 71 % 1014,5 hPa 0,0 mm 0,0 km/h (0 Bft) N-NW 337 0 min 11,0 C 0,0 km/h (0 Bft)
04.06.2016 20:15 16,2 C 16,8 C 72 % 1014,5 hPa 0,0 mm 0,0 km/h (0 Bft) W-NW 292 0 min 11,1 C 0,0 km/h (0 Bft)
04.06.2016 20:20 16,2 C 16,5 C 72 % 1014,5 hPa 0,0 mm 0,0 km/h (0 Bft) NW 315 0 min 11,1 C 0,0 km/h (0 Bft)
04.06.2016 20:25 16,0 C 16,4 C 72 % 1014,5 hPa 0,0 mm 0,0 km/h (0 Bft) NW 315 0 min 11,0 C 0,0 km/h (0 Bft)
04.06.2016 20:30 15,7 C 16,0 C 74 % 1014,7 hPa 0,0 mm 0,0 km/h (0 Bft) S-SO 157 0 min 11,1 C 0,0 km/h (0 Bft)
04.06.2016 20:35 15,5 C 15,8 C 75 % 1014,7 hPa 0,0 mm 0,0 km/h (0 Bft) S-SO 157 0 min 11,1 C 0,0 km/h (0 Bft)
04.06.2016 20:40 15,2 C 15,5 C 75 % 1014,7 hPa 0,0 mm 0,0 km/h (0 Bft) S-SO 157 0 min 10,8 C 0,0 km/h (0 Bft)
04.06.2016 20:45 15,1 C 15,4 C 76 % 1014,7 hPa 0,0 mm 0,0 km/h (0 Bft) O-NO 67 0 min 10,9 C 0,0 km/h (0 Bft)
04.06.2016 20:50 15,0 C 15,2 C 76 % 1014,8 hPa 0,0 mm 0,0 km/h (0 Bft) SW 225 0 min 10,8 C 0,0 km/h (0 Bft)
04.06.2016 20:55 15,0 C 15,1 C 77 % 1014,8 hPa 0,0 mm 0,0 km/h (0 Bft) SW 225 0 min 11,0 C 0,0 km/h (0 Bft)
04.06.2016 21:00 14,9 C 14,9 C 77 % 1014,8 hPa 0,0 mm 0,0 km/h (0 Bft) W 270 0 min 10,9 C 0,0 km/h (0 Bft)
04.06.2016 21:05 14,8 C 14,8 C 78 % 1014,8 hPa 0,0 mm 0,0 km/h (0 Bft) SW 225 0 min 11,0 C 0,0 km/h (0 Bft)
04.06.2016 21:10 14,7 C 14,6 C 78 % 1014,9 hPa 0,0 mm 0,3 km/h (0 Bft) SW 225 0 min 10,9 C 0,0 km/h (0 Bft)
04.06.2016 21:15 14,5 C 14,3 C 78 % 1014,9 hPa 0,0 mm 0,3 km/h (0 Bft) SO 135 0 min 10,7 C 0,0 km/h (0 Bft)
04.06.2016 21:20 14,2 C 14,0 C 78 % 1014,9 hPa 0,0 mm 0,0 km/h (0 Bft) O-SO 112 0 min 10,4 C 0,0 km/h (0 Bft)
04.06.2016 21:25 14,1 C 13,9 C 79 % 1014,9 hPa 0,0 mm 0,0 km/h (0 Bft) O-NO 67 0 min 10,5 C 0,0 km/h (0 Bft)
04.06.2016 21:30 13,9 C 13,7 C 79 % 1015,3 hPa 0,0 mm 0,0 km/h (0 Bft) O-SO 112 0 min 10,3 C 0,0 km/h (0 Bft)
04.06.2016 21:35 13,8 C 13,6 C 80 % 1015,3 hPa 0,0 mm 0,0 km/h (0 Bft) SO 135 0 min 10,4 C 0,0 km/h (0 Bft)
04.06.2016 21:40 13,7 C 13,5 C 80 % 1015,3 hPa 0,0 mm 0,0 km/h (0 Bft) O-NO 67 0 min 10,3 C 0,0 km/h (0 Bft)
04.06.2016 21:45 13,7 C 13,6 C 81 % 1015,3 hPa 0,0 mm 1,2 km/h (1 Bft) N-NO 22 0 min 10,5 C 6,6 km/h (2 Bft)
04.06.2016 21:50 13,7 C 13,6 C 81 % 1015,7 hPa 0,0 mm 1,5 km/h (1 Bft) O-NO 67 0 min 10,5 C 0,0 km/h (0 Bft)
04.06.2016 21:55 13,7 C 13,6 C 81 % 1015,7 hPa 0,0 mm 0,9 km/h (0 Bft) S 180 0 min 10,5 C 0,0 km/h (0 Bft)
04.06.2016 22:00 13,7 C 13,5 C 81 % 1015,7 hPa 0,0 mm 0,0 km/h (0 Bft) N-NO 22 0 min 10,5 C 0,0 km/h (0 Bft)
04.06.2016 22:05 13,7 C 13,5 C 81 % 1015,7 hPa 0,0 mm 0,3 km/h (0 Bft) O-NO 67 0 min 10,5 C 3,9 km/h (1 Bft)
04.06.2016 22:10 13,7 C 13,5 C 82 % 1015,6 hPa 0,0 mm 0,3 km/h (0 Bft) S 180 0 min 10,7 C 0,0 km/h (0 Bft)
04.06.2016 22:15 13,6 C 13,4 C 82 % 1015,6 hPa 0,0 mm 0,3 km/h (0 Bft) N-NO 22 0 min 10,6 C 0,0 km/h (0 Bft)
04.06.2016 22:20 13,5 C 13,3 C 82 % 1015,6 hPa 0,0 mm 0,0 km/h (0 Bft) O-SO 112 0 min 10,5 C 0,0 km/h (0 Bft)
04.06.2016 22:25 13,4 C 13,3 C 82 % 1015,6 hPa 0,0 mm 0,0 km/h (0 Bft) S 180 0 min 10,4 C 0,0 km/h (0 Bft)
04.06.2016 22:30 13,4 C 13,3 C 82 % 1015,7 hPa 0,0 mm 0,0 km/h (0 Bft) S 180 0 min 10,4 C 0,0 km/h (0 Bft)
04.06.2016 22:33 13,4 C 13,3 C 82 % 1015,7 hPa 0,0 mm 0,0 km/h (0 Bft) S 180 0 min 10,4 C 0,0 km/h (0 Bft)
04.06.2016 22:35 13,4 C 13,3 C 82 % 1015,7 hPa 0,0 mm 0,6 km/h (0 Bft) SO 135 0 min 10,4 C 0,0 km/h (0 Bft)
04.06.2016 22:40 13,3 C 13,3 C 82 % 1015,7 hPa 0,0 mm 0,6 km/h (0 Bft) NO 45 0 min 10,3 C 0,0 km/h (0 Bft)
04.06.2016 22:45 13,3 C 13,2 C 82 % 1015,7 hPa 0,0 mm 0,0 km/h (0 Bft) NO 45 0 min 10,3 C 0,0 km/h (0 Bft)
04.06.2016 22:50 13,3 C 13,1 C 82 % 1015,7 hPa 0,0 mm 0,0 km/h (0 Bft) W-SW 247 0 min 10,3 C 0,0 km/h (0 Bft)
04.06.2016 22:55 13,2 C 13,1 C 83 % 1015,7 hPa 0,0 mm 0,0 km/h (0 Bft) W-SW 247 0 min 10,4 C 0,0 km/h (0 Bft)
04.06.2016 23:00 13,2 C 13,1 C 83 % 1015,7 hPa 0,0 mm 0,0 km/h (0 Bft) S 180 0 min 10,4 C 0,0 km/h (0 Bft)
04.06.2016 23:05 13,2 C 13,1 C 83 % 1015,7 hPa 0,0 mm 0,0 km/h (0 Bft) NW 315 0 min 10,4 C 0,0 km/h (0 Bft)
04.06.2016 23:10 13,2 C 13,0 C 83 % 1015,8 hPa 0,0 mm 0,0 km/h (0 Bft) N 360 0 min 10,4 C 0,0 km/h (0 Bft)
04.06.2016 23:15 13,1 C 13,0 C 83 % 1015,8 hPa 0,0 mm 0,0 km/h (0 Bft) NW 315 0 min 10,3 C 0,0 km/h (0 Bft)
04.06.2016 23:20 13,1 C 12,9 C 83 % 1015,8 hPa 0,0 mm 0,0 km/h (0 Bft) SO 135 0 min 10,3 C 0,0 km/h (0 Bft)
04.06.2016 23:25 13,0 C 12,9 C 83 % 1015,8 hPa 0,0 mm 0,0 km/h (0 Bft) NW 315 0 min 10,2 C 0,0 km/h (0 Bft)
04.06.2016 23:30 12,9 C 12,8 C 84 % 1015,8 hPa 0,0 mm 0,0 km/h (0 Bft) S 180 0 min 10,3 C 0,0 km/h (0 Bft)
04.06.2016 23:35 12,9 C 12,8 C 84 % 1015,8 hPa 0,0 mm 0,0 km/h (0 Bft) S-SW 202 0 min 10,3 C 0,0 km/h (0 Bft)
04.06.2016 23:40 12,9 C 12,8 C 84 % 1015,8 hPa 0,0 mm 0,6 km/h (0 Bft) W-SW 247 0 min 10,3 C 4,5 km/h (1 Bft)
04.06.2016 23:45 12,9 C 12,8 C 84 % 1015,8 hPa 0,0 mm 0,6 km/h (0 Bft) SW 225 0 min 10,3 C 0,0 km/h (0 Bft)
04.06.2016 23:50 12,8 C 12,7 C 84 % 1015,8 hPa 0,0 mm 0,3 km/h (0 Bft) S-SO 157 0 min 10,2 C 0,0 km/h (0 Bft)
04.06.2016 23:55 12,8 C 12,6 C 84 % 1015,8 hPa 0,0 mm 0,3 km/h (0 Bft) O-NO 67 0 min 10,2 C 0,0 km/h (0 Bft)
_ Min-Zeit 00:25 00:25 14:15 04:27 - 23:35 - - - 00:25 23:55
Minimum _ 10,5 C 6,9 C 62 % 1012,4 hPa - 0,0 km/h (0 Bft) - - - 8,4 C 0,0 km/h (0 Bft)
_ Max-Zeit 14:10 14:10 07:50 23:55 11:20 18:00 - - 19:25 13:45 17:40
Maximum _ 19,0 C 25,8 C 89 % 1015,8 hPa 2,1 mm 10,7 km/h
W (2 Bft)
- - 5 min 13,8 C 22,7 km/h
NW (4 Bft)
Durchschnitt _ 14,3 C 13,7 C 80 % 1013,9 hPa #4,1 mm 1,5 km/h (1 Bft) N-NO - #3:50 h 10,7 C 2,1 km/h (1 Bft)